Weather observations for the past three days for
Iowa City Municipal Airport
Imperial (Metric)
Date Time (cdt) Wind (mph) Vis. (mi.) Weather Sky Cond. Temperature (ºF) Relative Humidity Wind Chill (°F) Heat Index (°F) Pressure Precipitation (in)
Air Dwpt 6 hour altimeter (in) sea level (mb) 1 hr 3 hr 6 hr
Max. Min.
06 00:52 NE 7 10.00 A Few Clouds FEW110 75 70 82.9 75 84% 75 30.04 1016.7
05 23:52 E 5 10.00 Fair CLR 75.9 71.1 85% 76 30.03 1016.2
05 22:52 NE 7 10.00 Fair CLR 75.9 71.1 85% 76 30.03 1016.1
05 21:52 E 5 10.00 Fair CLR 77 71.1 82% 79 30.01 1015.6
05 20:52 E 8 10.00 Fair CLR 79 72 79% 82 29.98 1014.7
05 19:52 NE 6 10.00 Fair CLR 81 72 74% 85 29.97 1014.3
05 18:52 NE 13 10.00 Fair CLR 82.9 75 93.9 82.9 77% 90 29.96 1014.1
05 17:52 NE 13 10.00 A Few Clouds FEW029 89.1 77 68% 102 29.95 1013.4
05 16:52 N 9 10.00 A Few Clouds FEW038 91 75 59% 102 29.94 1013.2
05 15:52 NE 8 10.00 A Few Clouds FEW035 91.9 75 58% 103 29.95 1013.4
05 12:52 NE 7 10.00 Fair CLR 90 77 90 73.9 66% 103 29.98 1014.5
05 11:52 E 7 10.00 Fair CLR 89.1 78.1 70% 103 29.99 1014.8
05 10:52 NE 9 10.00 Fair CLR 89.1 75.9 65% 100 29.99 1014.6
05 09:52 N 5 10.00 Fair CLR 88 75.9 68% 99 29.97 1014.1
05 08:52 N 3 10.00 Fair CLR 84 75 74% 92 29.96 1013.8
05 07:52 Calm 10.00 Fair CLR 79 75 88% 83 29.94 1013.3
05 06:52 Calm 9.00 Fair CLR 75 73 79 73.9 94% 73 29.93 1013.0
05 05:52 Calm 8.00 Fair CLR 73.9 73.9 100% 29.92 1012.6
05 04:52 Calm 10.00 Partly Cloudy SCT060 75.9 73.9 94% 75 29.92 1012.6
05 03:52 Calm 10.00 Partly Cloudy SCT065 77 73.9 90% 78 29.93 1012.8
05 02:52 Calm 10.00 Mostly Cloudy BKN060 75.9 73.9 94% 75 29.93 1012.8
05 01:52 Calm 10.00 Fair CLR 78.1 75 90% 81 29.93 1012.8
05 00:52 Calm 10.00 Fair CLR 78.1 75 91.9 78.1 90% 81 29.94 1013.0
04 23:52 Calm 10.00 Fair CLR 78.1 75 90% 81 29.93 1012.7
04 22:52 Calm 10.00 Fair CLR 80.1 75.9 87% 85 29.92 1012.4
04 21:52 SW 3 10.00 Fair CLR 84 75.9 77% 93 29.91 1012.0
04 20:52 Calm 10.00 Fair CLR 82 75.9 82% 89 29.9 1011.8
04 19:52 Calm 10.00 A Few Clouds FEW120 84.9 77 77% 95 29.91 1012.1
04 18:52 Calm 10.00 Fair CLR 91.9 73.9 95 91.9 56% 102 29.91 1012.1
04 17:52 S 6 10.00 Fair CLR 93 73 52% 102 29.9 1011.7
04 16:52 S 12 10.00 Fair CLR 93.9 73 51% 103 29.89 1011.3
04 15:52 S 15 10.00 Fair CLR 95 73.9 51% 106 29.89 1011.2
04 14:52 S 13 10.00 Fair CLR 93.9 72 49% 102 29.91 1012.1
04 13:52 SW 9 10.00 Fair CLR 93.9 73 51% 103 29.92 1012.6
04 12:52 SW 14 G 21 10.00 Fair CLR 93 72 93 75 50% 101 29.94 1013.2
04 11:52 SW 9 10.00 Fair CLR 91.9 73 54% 101 29.95 1013.5
04 10:52 W 10 10.00 Fair CLR 91 72 54% 99 29.95 1013.5
04 09:52 SW 7 10.00 Fair CLR 86 73 65% 93 29.94 1013.2
04 08:52 SW 5 10.00 Fair CLR 82.9 72 70% 88 29.94 1013.0
04 07:52 Calm 10.00 Fair CLR 78.1 72 82% 80 29.93 1012.7
04 06:52 Calm 10.00 Fair CLR 75 71.1 78.1 72 88% 75 29.92 1012.3
04 05:52 Calm 10.00 Fair CLR 73.9 72 94% 29.91 1012.0
04 04:52 Calm 10.00 Fair CLR 75.9 72 88% 76 29.9 1011.8
04 03:52 SE 3 10.00 Fair CLR 75 72 90% 74 29.88 1011.1
04 02:52 S 3 10.00 Fair CLR 75.9 73 91% 76 29.88 1011.2
04 01:52 Calm 10.00 Fair CLR 77 73.9 90% 78 29.9 1011.6
04 00:52 Calm 10.00 Fair CLR 78.1 75 91 77 90% 81 29.91 1011.9
03 23:52 SE 3 10.00 Fair CLR 79 75 88% 83 29.91 1011.9
03 22:52 Calm 10.00 Fair CLR 81 75.9 85% 87 29.9 1011.7
03 21:52 S 3 10.00 Fair CLR 82.9 75.9 79% 91 29.89 1011.6
03 20:52 SE 3 10.00 Fair CLR 84 75.9 77% 93 29.88 1011.0
03 19:52 S 8 10.00 Fair CLR 86 75 70% 95 29.85 1010.3
03 18:52 S 12 10.00 Fair CLR 91 75.9 95 91 61% 103 29.84 1009.9
03 17:52 S 10 10.00 Fair CLR 91.9 75 58% 103 29.86 1010.3
03 16:52 S 10 10.00 Fair CLR 93.9 73.9 52% 104 29.87 1010.7
03 15:52 S 9 10.00 Fair CLR 93.9 73.9 52% 104 29.9 1011.8
03 14:52 SW 9 10.00 Fair CLR 95 73 49% 105 29.9 1011.7
03 13:52 W 6 10.00 Fair CLR 93 73 52% 102 29.91 1012.1
03 12:52 Vrbl 3 10.00 Fair CLR 91.9 73 91.9 73 54% 101 29.93 1012.6
03 11:52 W 6 10.00 Fair CLR 91 72 54% 99 29.94 1013.1
03 10:52 Vrbl 3 10.00 Fair CLR 87.1 72 61% 94 29.94 1013.3
03 09:52 NE 5 10.00 Fair CLR 84.9 72 65% 91 29.95 1013.4
03 08:52 N 9 10.00 Mostly Cloudy BKN120 81 72 74% 85 29.95 1013.6
03 07:52 Calm 10.00 A Few Clouds FEW120 77 72 85% 78 29.93 1012.8
03 06:52 SE 3 10.00 Fair CLR 73.9 71.1 79 73.9 91% 29.92 1012.5
03 05:52 SE 3 10.00 Fair CLR 73.9 71.1 91% 29.9 1011.8
03 04:52 SE 3 10.00 Fair CLR 75 71.1 88% 75 29.9 1011.9
03 03:52 Calm 10.00 Fair CLR 77 71.1 82% 79 29.9 1011.9
03 02:52 SE 3 10.00 Fair CLR 77 72 85% 78 29.9 1011.8
03 01:52 Calm 10.00 Fair CLR 79 72 79% 82 29.91 1012.0
Date Time (cdt) Wind (mph) Vis. (mi.) Weather Sky Cond. Air Dwpt Max. Min. Relative Humidity Wind Chill (°F) Heat Index (°F) altimeter (in) sea level (mb) 1 hr 3 hr 6 hr
6 hour
Temperature (ºF) Pressure Precipitation (in)